• In Netherlands
  • List of Countries
  • For 7 days
  • Water Temperature
  • Satellite Maps
  • Weather Map
  • Weather Widgets
  • user-avatar
    Login

    Hourly Weather Córdoba

    Today, 17 January, Tuesday

    Time Temperature Precipitation Wind Pressure Humidity
    00:00 +23°C° 0 mm 2 mps 721 mmHg 72%
    01:00 +21°C° 0 mm 2 mps 721 mmHg 72%
    02:00 +21°C° 0 mm 2 mps 721 mmHg 71%
    03:00 +21°C° 0 mm 2 mps 720 mmHg 68%
    04:00 +21°C° 0 mm 2 mps 720 mmHg 65%
    05:00 +21°C° 0 mm 2 mps 720 mmHg 61%
    06:00 +25°C° 0 mm 2 mps 721 mmHg 50%
    07:00 +28°C° 0 mm 2 mps 721 mmHg 40%
    08:00 +31°C° 0 mm 2 mps 722 mmHg 29%
    09:00 +33°C° 0 mm 3 mps 722 mmHg 25%
    10:00 +35°C° 0 mm 3 mps 722 mmHg 21%
    11:00 +37°C° 0 mm 4 mps 722 mmHg 17%
    12:00 +38°C° 0 mm 3 mps 721 mmHg 16%
    13:00 +38°C° 0 mm 3 mps 721 mmHg 16%
    14:00 +39°C° 0 mm 3 mps 720 mmHg 15%
    15:00 +39°C° 0 mm 3 mps 720 mmHg 15%
    16:00 +39°C° 0 mm 3 mps 719 mmHg 16%
    17:00 +38°C° 0 mm 3 mps 718 mmHg 16%
    18:00 +35°C° 0 mm 3 mps 719 mmHg 21%
    19:00 +31°C° 0 mm 3 mps 719 mmHg 26%
    20:00 +28°C° 0 mm 3 mps 719 mmHg 30%
    21:00 +27°C° 0 mm 2 mps 719 mmHg 36%
    22:00 +26°C° 0 mm 2 mps 720 mmHg 41%
    23:00 +25°C° 0 mm 1 mps 720 mmHg 46%

    Tomorrow, 18 January, Wednesday

    Time Temperature Precipitation Wind Pressure Humidity
    00:00 +24°C° 0 mm 1 mps 720 mmHg 46%
    01:00 +24°C° 0 mm 1 mps 720 mmHg 47%
    02:00 +23°C° 0 mm 1 mps 720 mmHg 47%
    03:00 +23°C° 0 mm 1 mps 720 mmHg 49%
    04:00 +22°C° 0 mm 1 mps 720 mmHg 50%
    05:00 +22°C° 0 mm 1 mps 720 mmHg 51%
    06:00 +25°C° 0 mm 1 mps 721 mmHg 44%
    07:00 +28°C° 0 mm 2 mps 722 mmHg 36%
    08:00 +31°C° 0 mm 3 mps 722 mmHg 28%
    09:00 +34°C° 0 mm 4 mps 723 mmHg 25%
    10:00 +36°C° 0 mm 5 mps 723 mmHg 22%
    11:00 +39°C° 0 mm 6 mps 723 mmHg 19%
    12:00 +40°C° 0 mm 6 mps 722 mmHg 18%
    13:00 +41°C° 0 mm 6 mps 722 mmHg 17%
    14:00 +42°C° 0 mm 6 mps 721 mmHg 16%
    15:00 +41°C° 0 mm 6 mps 721 mmHg 16%
    16:00 +41°C° 0 mm 7 mps 720 mmHg 16%
    17:00 +40°C° 0 mm 7 mps 720 mmHg 15%
    18:00 +38°C° 0 mm 6 mps 720 mmHg 19%
    19:00 +34°C° 0 mm 5 mps 720 mmHg 23%
    20:00 +30°C° 0 mm 4 mps 720 mmHg 26%
    21:00 +29°C° 0 mm 4 mps 721 mmHg 28%
    22:00 +28°C° 0 mm 4 mps 721 mmHg 29%
    23:00 +27°C° 0 mm 3 mps 722 mmHg 31%

    Day after tomorrow, 19 January, Thursday

    Time Temperature Precipitation Wind Pressure Humidity
    00:00 +27°C° 0 mm 3 mps 721 mmHg 33%
    01:00 +26°C° 0 mm 3 mps 721 mmHg 35%
    02:00 +26°C° 0 mm 3 mps 721 mmHg 37%
    03:00 +25°C° 0 mm 3 mps 721 mmHg 39%
    04:00 +25°C° 0 mm 3 mps 721 mmHg 40%
    05:00 +24°C° 0 mm 3 mps 721 mmHg 41%
    06:00 +26°C° 0 mm 4 mps 722 mmHg 38%
    07:00 +29°C° 0 mm 5 mps 723 mmHg 34%
    08:00 +32°C° 0 mm 6 mps 723 mmHg 31%
    09:00 +34°C° 0 mm 7 mps 723 mmHg 27%
    10:00 +36°C° 0 mm 7 mps 723 mmHg 24%
    11:00 +39°C° 0 mm 8 mps 724 mmHg 20%
    12:00 +40°C° 0 mm 8 mps 723 mmHg 18%
    13:00 +41°C° 0 mm 8 mps 723 mmHg 16%
    14:00 +43°C° 0 mm 8 mps 722 mmHg 14%
    15:00 +43°C° 0 mm 7 mps 722 mmHg 14%
    16:00 +43°C° 0 mm 7 mps 721 mmHg 14%
    17:00 +41°C° 0 mm 7 mps 721 mmHg 15%
    18:00 +39°C° 0 mm 6 mps 721 mmHg 18%
    19:00 +35°C° 0 mm 5 mps 721 mmHg 21%
    20:00 +32°C° 0 mm 4 mps 722 mmHg 25%
    21:00 +30°C° 0 mm 4 mps 722 mmHg 27%
    22:00 +29°C° 0 mm 3 mps 722 mmHg 29%
    23:00 +28°C° 0 mm 3 mps 723 mmHg 31%

    20 January, Friday

    Time Temperature Precipitation Wind Pressure Humidity
    00:00 +28°C° 0 mm 3 mps 723 mmHg 33%
    01:00 +27°C° 0 mm 3 mps 723 mmHg 35%
    02:00 +27°C° 0 mm 3 mps 723 mmHg 37%
    03:00 +26°C° 0 mm 3 mps 723 mmHg 40%
    04:00 +26°C° 0 mm 3 mps 723 mmHg 44%
    05:00 +25°C° 0 mm 3 mps 723 mmHg 47%
    06:00 +27°C° 0 mm 4 mps 724 mmHg 43%
    07:00 +29°C° 0 mm 5 mps 725 mmHg 38%
    08:00 +32°C° 0 mm 5 mps 725 mmHg 34%
    09:00 +34°C° 0 mm 6 mps 725 mmHg 29%
    10:00 +38°C° 0 mm 6 mps 725 mmHg 24%
    11:00 +40°C° 0 mm 6 mps 725 mmHg 20%
    12:00 +41°C° 0 mm 6 mps 725 mmHg 17%
    13:00 +43°C° 0 mm 7 mps 724 mmHg 15%
    14:00 +44°C° 0 mm 7 mps 724 mmHg 12%
    15:00 +43°C° 0 mm 7 mps 723 mmHg 12%
    16:00 +43°C° 0 mm 7 mps 723 mmHg 12%
    17:00 +41°C° 0 mm 8 mps 722 mmHg 12%
    18:00 +38°C° 0 mm 6 mps 722 mmHg 16%
    19:00 +34°C° 0 mm 5 mps 722 mmHg 19%
    20:00 +30°C° 0 mm 4 mps 722 mmHg 23%
    21:00 +29°C° 0 mm 4 mps 723 mmHg 25%
    22:00 +28°C° 0 mm 3 mps 723 mmHg 26%
    23:00 +27°C° 0 mm 3 mps 723 mmHg 28%

    21 January, Saturday

    Time Temperature Precipitation Wind Pressure Humidity
    00:00 +27°C° 0 mm 3 mps 723 mmHg 29%
    01:00 +26°C° 0 mm 3 mps 723 mmHg 30%
    02:00 +25°C° 0 mm 3 mps 723 mmHg 31%
    03:00 +25°C° 0 mm 3 mps 723 mmHg 32%
    04:00 +24°C° 0 mm 3 mps 723 mmHg 33%
    05:00 +24°C° 0 mm 2 mps 723 mmHg 34%
    06:00 +26°C° 0 mm 3 mps 723 mmHg 31%
    07:00 +29°C° 0 mm 3 mps 724 mmHg 27%
    08:00 +32°C° 0 mm 4 mps 724 mmHg 24%
    09:00 +34°C° 0 mm 4 mps 724 mmHg 21%
    10:00 +36°C° 0 mm 4 mps 724 mmHg 18%
    11:00 +39°C° 0 mm 5 mps 724 mmHg 15%
    12:00 +41°C° 0 mm 5 mps 724 mmHg 13%
    13:00 +42°C° 0 mm 5 mps 723 mmHg 12%
    14:00 +43°C° 0 mm 5 mps 722 mmHg 11%
    15:00 +42°C° 0 mm 5 mps 722 mmHg 11%
    16:00 +42°C° 0 mm 5 mps 721 mmHg 12%
    17:00 +42°C° 0 mm 5 mps 721 mmHg 12%
    18:00 +39°C° 0 mm 5 mps 721 mmHg 17%
    19:00 +35°C° 0 mm 4 mps 721 mmHg 22%
    20:00 +31°C° 0 mm 3 mps 721 mmHg 27%
    21:00 +30°C° 0 mm 3 mps 721 mmHg 30%
    22:00 +28°C° 0 mm 2 mps 722 mmHg 34%
    23:00 +27°C° 0 mm 2 mps 722 mmHg 37%

    22 January, Sunday

    Time Temperature Precipitation Wind Pressure Humidity
    00:00 +27°C° 0 mm 2 mps 722 mmHg 39%
    01:00 +26°C° 0 mm 1 mps 721 mmHg 41%
    02:00 +26°C° 0 mm 1 mps 721 mmHg 43%
    03:00 +26°C° 0 mm 1 mps 721 mmHg 43%
    04:00 +25°C° 0 mm 1 mps 721 mmHg 44%
    05:00 +25°C° 0 mm 2 mps 721 mmHg 44%
    06:00 +28°C° 0 mm 2 mps 722 mmHg 39%
    07:00 +30°C° 0 mm 3 mps 722 mmHg 35%
    08:00 +34°C° 0 mm 4 mps 723 mmHg 31%
    09:00 +36°C° 0 mm 4 mps 723 mmHg 28%
    10:00 +39°C° 0 mm 5 mps 723 mmHg 25%
    11:00 +41°C° 0 mm 5 mps 723 mmHg 22%
    12:00 +42°C° 0 mm 5 mps 722 mmHg 20%
    13:00 +43°C° 0 mm 4 mps 721 mmHg 19%
    14:00 +43°C° 0 mm 4 mps 721 mmHg 17%
    15:00 +43°C° 0 mm 4 mps 721 mmHg 18%
    16:00 +42°C° 0 mm 4 mps 720 mmHg 19%
    17:00 +41°C° 0 mm 4 mps 720 mmHg 20%
    18:00 +38°C° 0.1 mm 4 mps 720 mmHg 24%
    19:00 +35°C° 0.1 mm 4 mps 720 mmHg 28%
    20:00 +33°C° 0.1 mm 4 mps 720 mmHg 32%
    21:00 +30°C° 0.3 mm 3 mps 720 mmHg 38%
    22:00 +28°C° 0.3 mm 3 mps 721 mmHg 45%
    23:00 +27°C° 0.3 mm 2 mps 721 mmHg 51%
    Show more